Regional Weather Roundup
Issued by NWS Little Rock, AR

Home | Current Version | Previous Version | Text Only | Print | Product List | Glossary Off
Versions: 1 2 3 4 5 6 7 8 9 10 11 12 13 14 15 16 17 18 19 20 21 22 23 24 25 26 27 28 29 30 31 32 33 34 35 36 37 38 39 40 41 42 43 44 45 46 47 48 49

000
ASUS44 KLZK 271605
RWRLZK

WEATHER ROUNDUP FOR ARKANSAS
NATIONAL WEATHER SERVICE LITTLE ROCK AR
1000 AM CST TUE JAN 27 2015

NOTE: "FAIR" INDICATES FEW OR NO CLOUDS BELOW 12,000 FEET WITH NO
SIGNIFICANT WEATHER AND/OR OBSTRUCTIONS TO VISIBILITY.

ARZ001-003-010-029-271700-
NORTHWEST ARKANSAS

CITY           SKY/WX    TMP DP  RH WIND       PRES   REMARKS
FAYETTEVILLE   SUNNY     47  36  65 CALM      30.17S
FORT SMITH     SUNNY     52  38  58 SW3       30.17R
HARRISON       SUNNY     50  34  54 N6        30.16R
BENTONVILLE    SUNNY     50  34  53 CALM      30.18R
ROGERS         SUNNY     50  35  56 CALM      30.17R
SILOAM SPGS    SUNNY    N/A N/A N/A E5        30.18R
HIGHFILL       SUNNY     50  34  54 E5        30.16S
SPRINGDALE     SUNNY     50  36  57 CALM      30.19R
$$

ARZ004-005-016-271700-
NORTH CENTRAL ARKANSAS

CITY           SKY/WX    TMP DP  RH WIND       PRES   REMARKS
BATESVILLE     SUNNY     50  34  53 N7        30.17R
FLIPPIN        SUNNY     48  34  57 NE7       30.16S
MTN HOME       SUNNY     47  35  63 CALM      30.16R
$$

ARZ040-041-271700-
WEST CENTRAL ARKANSAS

CITY           SKY/WX    TMP DP  RH WIND       PRES   REMARKS
MENA           SUNNY     63  37  39 CALM      30.16R
MOUNT IDA      SUNNY     58  38  47 CALM      30.13R
$$

ARZ009-017-025-026-028-271700-
NORTHEAST ARKANSAS

CITY           SKY/WX    TMP DP  RH WIND       PRES   REMARKS
JONESBORO      SUNNY     47  37  68 N9        30.15R
NEWPORT        SUNNY     50  36  58 N9        30.18R
WALNUT RIDGE   SUNNY     48  36  61 N13       30.15R
BLYTHEVILLE    SUNNY     48  39  71 N16       30.15R
$$

ARZ022-023-033-042-044-271700-
CENTRAL ARKANSAS

CITY           SKY/WX    TMP DP  RH WIND       PRES   REMARKS
LITTLE ROCK    SUNNY     59  34  39 N13       30.16R
N LITTLE ROCK  SUNNY     55  39  54 N10       30.16R
JACKSONVILLE   SUNNY     55  36  48 N8        30.16R
SEARCY         SUNNY     53  37  54 NE9       30.17R
HOT SPRINGS    SUNNY     54  40  59 CALM      30.16R
RUSSELLVILLE   SUNNY     53  37  54 CALM      30.16R
CLINTON        FAIR      54  36  50 CALM      30.17R
$$

ARZ036-271700-
EAST ARKANSAS

CITY           SKY/WX    TMP DP  RH WIND       PRES   REMARKS
WEST MEMPHIS   SUNNY     51  39  63 N13       30.14R
$$

ARZ050-053-066-070-073-271700-
SOUTHWEST ARKANSAS

CITY           SKY/WX    TMP DP  RH WIND       PRES   REMARKS
ARKADELPHIA    FAIR      55  43  64 NE3       30.17R
CAMDEN         SUNNY     55  37  50 CALM      30.16R
TEXARKANA      SUNNY     59  41  51 CALM      30.16R
EL DORADO      SUNNY     61  39  44 VRB6      30.16R
DE QUEEN       SUNNY     54  45  71 CALM      30.15R
$$

ARZ056-057-069-271700-
SOUTHEAST ARKANSAS

CITY           SKY/WX    TMP DP  RH WIND       PRES   REMARKS
PINE BLUFF     SUNNY     56  37  49 N12       30.15R
STUTTGART      SUNNY     54  37  54 N13       30.17R
MONTICELLO     SUNNY     58  37  45 NE9       30.15R

$$




USA.gov is the U.S. government's official web portal to all federal, state and local government web resources and services.